Simultaneous Nadir Overpasses (SNOs) Predictions

Prediction of SNOs over PacNW region [( 10.00, 139.50) to ( 22.70, 165.60)] between AQUA and NPP Satellites:

Table of predicted SNOs over PacNW region for the next 30.0 days since TLE Epoch: 2/29/2020
Index Date (AQUA) Time (AQUA) AQUA Lat,Lon Date (NPP) Time (NPP) NPP Lat,Lon Distance(km) Time Diff (sec)
1 03/05/2020 15:59:38 22.60, 147.46 03/05/2020 16:01:23 23.27, 144.59 303.86 105
2 03/13/2020 15:10:14 22.62, 159.83 03/13/2020 15:10:41 23.18, 157.24 272.17 27
3 03/21/2020 15:59:43 22.64, 147.48 03/21/2020 16:01:26 23.30, 144.58 305.81 103




NCC Satellite Simultaneous Nadir Overpasses (SNOs) Prediction Service
